Powrót do katalogu

SITRO-AIS-38

AktywnyNawigacjaSSO
NORAD 61786·PAYLOAD·🇷🇺 Russia
Ta nazwa satelity nie została jeszcze potwierdzona przez oficjalne źródła.

Wystrzelony Nov 4, 2024 z Vostochny Cosmodrome

Loading…

Następne Przeloty (najbliższe 24 godziny)

TLE

ŚwieżeSource: Space-Track

Epoka: Sep 14, 2026, 21:54 UTC

1 61786U 24199BD  26257.91276673  .00037416  00000-0  57897-3 0  9996
2 61786  97.2757 133.2950 0006145 336.8940  23.2036 15.53956043148223

Śledź SITRO-AIS-38 w czasie rzeczywistym z AllMySat

Download on the App Store